Location: Avoca
(45.7167°N, 74.7000°W)
Time: 00:22:47
(UTC+00:00)

Tiangong - Visible Passes

Search period start: 29 November 2022 00:00
Search period end: 09 December 2022 00:00
Orbit: 386 x 393 km, 41.5° (Epoch: 28 November)

Date Brightness Start Highest point End Pass type
(mag) Time Alt. Az. Time Alt. Az. Time Alt. Az.
30 Nov -0.1 23:14:49 10° SSW 23:16:48 20° S 23:16:48 20° S visible
01 Dec 0.2 22:17:24 10° SSW 22:19:22 15° SSE 22:21:20 10° ESE visible
01 Dec 0.7 23:52:51 10° WSW 23:53:45 16° SW 23:53:45 16° SW visible
02 Dec -0.8 22:54:55 10° SW 22:57:44 28° SSE 22:58:20 26° SE visible
03 Dec -0.2 21:57:06 10° SW 21:59:39 22° SSE 22:02:13 10° ESE visible
03 Dec -0.3 23:33:11 10° WSW 23:35:10 29° SW 23:35:10 29° SW visible
04 Dec -0.9 22:35:05 10° WSW 22:38:01 35° S 22:39:41 20° ESE visible
05 Dec 1.4 00:11:43 10° WSW 00:11:59 12° WSW 00:11:59 12° WSW visible
05 Dec -1.1 23:13:27 10° WSW 23:16:26 37° S 23:16:29 37° S visible
06 Dec -1.0 22:15:12 10° WSW 22:18:12 38° S 22:20:59 11° ESE visible
06 Dec 0.6 23:52:02 10° WSW 23:53:17 18° WSW 23:53:17 18° WSW visible
07 Dec -0.6 22:53:38 10° WSW 22:56:31 32° S 22:57:50 22° SE visible
08 Dec -0.8 21:55:16 10° WSW 21:58:14 36° S 22:01:12 10° ESE visible
08 Dec 0.3 23:32:23 10° WSW 23:34:42 19° SSW 23:34:45 18° SSW visible
